TimeCDT,TemperatureF,Dew PointF,Humidity,Sea Level PressureIn,VisibilityMPH,Wind Direction,Wind SpeedMPH,Gust SpeedMPH,PrecipitationIn,Events,Conditions,WindDirDegrees,DateUTC
12:53 AM,80.1,66.0,62,30.01,10.0,ESE,6.9,-,N/A,,Scattered Clouds,120,2013-09-12 05:53:00
1:53 AM,79.0,64.9,62,30.01,10.0,SE,5.8,-,N/A,,Scattered Clouds,140,2013-09-12 06:53:00
2:53 AM,79.0,64.9,62,30.01,10.0,Calm,Calm,-,N/A,,Mostly Cloudy,0,2013-09-12 07:53:00
3:53 AM,77.0,64.9,66,30.00,10.0,SE,4.6,-,N/A,,Scattered Clouds,140,2013-09-12 08:53:00
4:53 AM,75.9,64.9,69,30.00,10.0,SE,3.5,-,N/A,,Scattered Clouds,140,2013-09-12 09:53:00
5:53 AM,75.0,64.9,71,30.01,10.0,Calm,Calm,-,N/A,,Scattered Clouds,0,2013-09-12 10:53:00
6:53 AM,73.9,66.0,76,30.02,10.0,ESE,4.6,-,N/A,,Partly Cloudy,120,2013-09-12 11:53:00
7:53 AM,75.0,66.0,73,30.04,8.0,Calm,Calm,-,N/A,,Mostly Cloudy,0,2013-09-12 12:53:00
8:53 AM,80.1,64.9,60,30.04,10.0,SSW,8.1,-,N/A,,Partly Cloudy,210,2013-09-12 13:53:00
9:53 AM,84.0,64.9,53,30.05,10.0,SW,5.8,-,N/A,,Partly Cloudy,230,2013-09-12 14:53:00
10:53 AM,88.0,64.9,46,30.06,10.0,WSW,5.8,-,N/A,,Partly Cloudy,250,2013-09-12 15:53:00
11:53 AM,90.0,64.9,43,30.05,10.0,Calm,Calm,-,N/A,,Scattered Clouds,0,2013-09-12 16:53:00
12:53 PM,93.0,61.0,34,30.02,10.0,West,5.8,-,N/A,,Scattered Clouds,270,2013-09-12 17:53:00
1:53 PM,91.9,63.0,38,30.00,10.0,NNE,3.5,-,N/A,,Mostly Cloudy,30,2013-09-12 18:53:00
2:53 PM,93.9,62.1,35,29.96,10.0,WNW,8.1,-,N/A,,Mostly Cloudy,300,2013-09-12 19:53:00
3:53 PM,98.1,62.1,30,29.93,10.0,Variable,5.8,-,N/A,,Mostly Cloudy,0,2013-09-12 20:53:00
4:53 PM,93.9,61.0,33,29.91,10.0,East,4.6,-,N/A,,Scattered Clouds,80,2013-09-12 21:53:00
5:53 PM,95.0,61.0,32,29.91,10.0,SE,8.1,-,N/A,,Scattered Clouds,140,2013-09-12 22:53:00
6:53 PM,93.9,61.0,33,29.90,10.0,East,9.2,-,N/A,,Scattered Clouds,100,2013-09-12 23:53:00
7:53 PM,90.0,62.1,39,29.91,10.0,ESE,3.5,-,N/A,,Scattered Clouds,110,2013-09-13 00:53:00
8:53 PM,89.1,62.1,40,29.93,10.0,Calm,Calm,-,N/A,,Mostly Cloudy,0,2013-09-13 01:53:00
9:53 PM,89.1,62.1,40,29.94,10.0,Calm,Calm,-,N/A,,Partly Cloudy,0,2013-09-13 02:53:00
10:53 PM,86.0,64.0,48,29.94,10.0,NE,6.9,-,N/A,,Mostly Cloudy,40,2013-09-13 03:53:00
11:53 PM,84.0,64.9,53,29.94,10.0,NE,4.6,-,N/A,,Mostly Cloudy,50,2013-09-13 04:53:00